TimeEST,TemperatureF,Dew PointF,Humidity,Sea Level PressureIn,VisibilityMPH,Wind Direction,Wind SpeedMPH,Gust SpeedMPH,PrecipitationIn,Events,Conditions,WindDirDegrees,DateUTC
12:16 AM,30.2,28.4,93,29.96,2.5,WSW,10.4,-,N/A,Snow,Light Snow,250,2007-01-19 05:16:00
12:37 AM,30.2,26.6,86,29.96,7.0,West,12.7,17.3,N/A,,Overcast,270,2007-01-19 05:37:00
12:56 AM,28.4,26.6,93,29.97,10.0,West,11.5,-,N/A,,Overcast,270,2007-01-19 05:56:00
1:16 AM,30.2,26.6,86,29.97,10.0,West,11.5,-,N/A,,Overcast,260,2007-01-19 06:16:00
1:36 AM,30.2,26.6,86,29.98,7.0,West,9.2,-,N/A,Snow,Light Snow,260,2007-01-19 06:36:00
1:56 AM,30.2,26.6,86,29.98,7.0,West,11.5,16.1,N/A,Snow,Light Snow,260,2007-01-19 06:56:00
2:16 AM,30.2,26.6,86,29.99,7.0,West,10.4,-,N/A,Snow,Light Snow,260,2007-01-19 07:16:00
2:36 AM,30.2,26.6,86,30.00,5.0,WSW,9.2,-,N/A,Snow,Light Snow,250,2007-01-19 07:36:00
3:16 AM,30.2,26.6,86,30.01,7.0,West,13.8,-,N/A,,Overcast,260,2007-01-19 08:16:00
3:36 AM,30.2,26.6,86,30.02,7.0,West,9.2,-,N/A,,Overcast,260,2007-01-19 08:36:00
3:56 AM,28.4,24.8,86,30.02,7.0,West,15.0,-,N/A,,Overcast,260,2007-01-19 08:56:00
4:16 AM,28.4,24.8,86,30.02,7.0,West,15.0,-,N/A,,Overcast,270,2007-01-19 09:16:00
4:37 AM,28.4,24.8,86,30.03,7.0,West,15.0,25.3,N/A,,Overcast,270,2007-01-19 09:37:00
4:56 AM,28.4,24.8,86,30.03,7.0,West,17.3,20.7,N/A,Snow,Light Snow,270,2007-01-19 09:56:00
5:16 AM,28.4,23.0,80,30.04,7.0,WNW,13.8,23.0,N/A,Snow,Light Snow,290,2007-01-19 10:16:00
5:36 AM,28.4,21.2,74,30.05,10.0,West,10.4,19.6,N/A,Snow,Light Snow,280,2007-01-19 10:36:00
5:56 AM,28.4,21.2,74,30.05,10.0,West,11.5,17.3,N/A,Snow,Light Snow,280,2007-01-19 10:56:00
6:17 AM,28.4,21.2,74,30.06,7.0,West,10.4,-,N/A,Snow,Light Snow,280,2007-01-19 11:17:00
6:36 AM,26.6,23.0,86,30.07,5.0,West,9.2,-,N/A,Snow,Light Snow,270,2007-01-19 11:36:00
6:56 AM,26.6,23.0,86,30.08,3.0,West,10.4,-,N/A,Snow,Light Snow,260,2007-01-19 11:56:00
7:16 AM,26.6,23.0,86,30.08,7.0,West,6.9,-,N/A,Snow,Light Snow,260,2007-01-19 12:16:00
7:36 AM,26.6,23.0,86,30.09,7.0,West,11.5,-,N/A,Snow,Light Snow,260,2007-01-19 12:36:00
7:56 AM,26.6,23.0,86,30.10,5.0,West,9.2,-,N/A,Snow,Light Snow,260,2007-01-19 12:56:00
8:16 AM,26.6,23.0,86,30.10,3.0,WSW,6.9,-,N/A,Snow,Light Snow,250,2007-01-19 13:16:00
8:36 AM,26.6,23.0,86,30.11,4.0,WSW,10.4,-,N/A,Snow,Light Snow,250,2007-01-19 13:36:00
8:56 AM,26.6,21.2,80,30.11,10.0,WSW,10.4,-,N/A,Snow,Light Snow,250,2007-01-19 13:56:00
9:17 AM,26.6,23.0,86,30.12,3.0,WSW,8.1,-,N/A,Snow,Light Snow,250,2007-01-19 14:17:00
9:36 AM,26.6,23.0,86,30.12,2.0,West,9.2,-,N/A,Snow,Light Snow,260,2007-01-19 14:36:00
9:56 AM,26.6,23.0,86,30.12,4.0,West,11.5,18.4,N/A,Snow,Light Snow,260,2007-01-19 14:56:00
10:16 AM,28.4,21.2,74,30.12,10.0,West,9.2,-,N/A,Snow,Light Snow,260,2007-01-19 15:16:00
10:36 AM,28.4,21.2,74,30.13,10.0,West,11.5,18.4,N/A,Snow,Light Snow,260,2007-01-19 15:36:00
10:56 AM,26.6,21.2,80,30.14,7.0,WSW,10.4,18.4,N/A,Snow,Light Snow,250,2007-01-19 15:56:00
11:16 AM,26.6,21.2,80,30.15,10.0,West,12.7,18.4,N/A,,Overcast,260,2007-01-19 16:16:00
11:36 AM,26.6,21.2,80,30.15,10.0,West,9.2,16.1,N/A,,Overcast,260,2007-01-19 16:36:00
11:56 AM,26.6,21.2,80,30.13,10.0,West,11.5,17.3,N/A,,Overcast,270,2007-01-19 16:56:00
12:16 PM,26.6,19.4,74,30.13,10.0,West,15.0,23.0,N/A,,Overcast,270,2007-01-19 17:16:00
12:36 PM,26.6,19.4,74,30.13,10.0,West,12.7,18.4,N/A,,Overcast,270,2007-01-19 17:36:00
12:56 PM,26.6,21.2,80,30.13,10.0,West,15.0,19.6,N/A,,Overcast,270,2007-01-19 17:56:00
1:16 PM,26.6,21.2,80,30.12,10.0,West,15.0,25.3,N/A,,Overcast,270,2007-01-19 18:16:00
1:36 PM,26.6,21.2,80,30.12,10.0,WSW,12.7,18.4,N/A,,Overcast,250,2007-01-19 18:36:00
1:56 PM,26.6,19.4,74,30.11,10.0,West,12.7,19.6,N/A,,Overcast,260,2007-01-19 18:56:00
2:16 PM,26.6,19.4,74,30.11,10.0,WSW,10.4,17.3,N/A,,Overcast,250,2007-01-19 19:16:00
2:36 PM,26.6,19.4,74,30.11,10.0,WSW,10.4,-,N/A,,Overcast,250,2007-01-19 19:36:00
2:58 PM,26.6,19.4,74,30.10,10.0,West,15.0,18.4,N/A,,Overcast,260,2007-01-19 19:58:00
3:16 PM,26.6,19.4,74,30.10,10.0,WSW,11.5,-,N/A,,Overcast,240,2007-01-19 20:16:00
3:36 PM,28.4,19.4,69,30.09,10.0,West,15.0,18.4,N/A,,Overcast,260,2007-01-19 20:36:00
3:56 PM,28.4,19.4,69,30.10,10.0,West,13.8,-,N/A,,Overcast,270,2007-01-19 20:56:00
4:17 PM,26.6,19.4,74,30.11,10.0,West,12.7,19.6,N/A,,Overcast,260,2007-01-19 21:17:00
4:36 PM,26.6,17.6,69,30.11,10.0,WSW,10.4,19.6,N/A,,Mostly Cloudy,250,2007-01-19 21:36:00
4:56 PM,26.6,17.6,69,30.11,10.0,WSW,11.5,-,N/A,,Mostly Cloudy,250,2007-01-19 21:56:00
5:16 PM,26.6,17.6,69,30.11,10.0,WSW,8.1,-,N/A,,Mostly Cloudy,250,2007-01-19 22:16:00
5:36 PM,26.6,17.6,69,30.11,10.0,WSW,8.1,16.1,N/A,,Mostly Cloudy,250,2007-01-19 22:36:00
5:56 PM,26.6,17.6,69,30.12,10.0,WSW,9.2,-,N/A,,Mostly Cloudy,250,2007-01-19 22:56:00
6:16 PM,24.8,17.6,74,30.14,10.0,WSW,9.2,-,N/A,,Mostly Cloudy,250,2007-01-19 23:16:00
6:36 PM,26.6,19.4,74,30.14,10.0,WSW,9.2,-,N/A,,Overcast,250,2007-01-19 23:36:00
6:56 PM,26.6,19.4,74,30.14,10.0,West,9.2,-,N/A,,Overcast,280,2007-01-19 23:56:00
7:18 PM,26.6,19.4,74,30.14,10.0,West,11.5,-,N/A,Snow,Light Snow,280,2007-01-20 00:18:00
7:36 PM,26.6,17.6,69,30.15,10.0,WNW,11.5,24.2,N/A,,Overcast,290,2007-01-20 00:36:00
7:56 PM,26.6,17.6,69,30.15,10.0,West,19.6,25.3,N/A,Snow,Light Snow,280,2007-01-20 00:56:00
8:16 PM,26.6,15.8,64,30.16,10.0,WNW,13.8,18.4,N/A,,Overcast,290,2007-01-20 01:16:00
8:36 PM,24.8,17.6,74,30.17,10.0,WNW,10.4,-,N/A,Snow,Light Snow,300,2007-01-20 01:36:00
8:56 PM,24.8,17.6,74,30.18,10.0,WNW,10.4,16.1,N/A,Snow,Light Snow,300,2007-01-20 01:56:00
9:16 PM,24.8,17.6,74,30.18,10.0,WNW,5.8,-,N/A,,Overcast,290,2007-01-20 02:16:00
9:36 PM,24.8,17.6,74,30.18,10.0,WNW,8.1,-,N/A,,Overcast,290,2007-01-20 02:36:00
9:56 PM,24.8,17.6,74,30.19,10.0,WNW,4.6,-,N/A,,Overcast,290,2007-01-20 02:56:00
10:16 PM,24.8,17.6,74,30.19,10.0,West,4.6,-,N/A,,Overcast,270,2007-01-20 03:16:00
10:37 PM,24.8,19.4,80,30.20,10.0,West,3.5,-,N/A,,Overcast,260,2007-01-20 03:37:00
10:58 PM,24.8,19.4,80,30.21,10.0,West,5.8,-,N/A,,Overcast,260,2007-01-20 03:58:00
11:18 PM,24.8,19.4,80,30.21,10.0,West,5.8,-,N/A,Snow,Light Snow,270,2007-01-20 04:18:00
11:37 PM,24.8,19.4,80,30.22,10.0,West,4.6,-,N/A,,Overcast,270,2007-01-20 04:37:00
11:57 PM,24.8,17.6,74,30.22,10.0,WNW,6.9,-,N/A,Snow,Light Snow,300,2007-01-20 04:57:00